| time (UTC) | temp C | wind direction | speed KPH | gust KPH | rain 1hr cm | rain 24hr cm | rain mn cm | humidity % | barometer mb |
| 20260905010051 | 33 | 15 | 0.0 | 3.2 | 0.00 | 0.00 | 0.00 | 54 | 990.5 |
| 20260905004551 | 33 | 38 | 0.0 | 3.2 | 0.00 | 0.00 | 0.00 | 52 | 990.4 |
| 20260905003050 | 33 | 49 | 0.0 | 14.5 | 0.00 | 0.00 | 0.00 | 51 | 990.3 |
| 20260905001550 | 34 | 58 | 4.8 | 16.1 | 0.00 | 0.00 | 0.00 | 50 | 990.1 |
| 20260904234548 | 35 | 74 | 6.4 | 19.3 | 0.00 | 0.00 | 0.00 | 48 | 990.0 |
| 20260904233050 | 35 | 42 | 0.0 | 16.1 | 0.00 | 0.00 | 0.00 | 48 | 990.0 |
| 20260904231549 | 35 | 359 | 0.0 | 16.1 | 0.00 | 0.00 | 0.00 | 47 | 989.9 |
| 20260904230049 | 35 | 43 | 4.8 | 19.3 | 0.00 | 0.00 | 0.00 | 48 | 990.0 |
| 20260904224546 | 35 | 85 | 0.0 | 14.5 | 0.00 | 0.00 | 0.00 | 49 | 990.1 |
| 20260904223045 | 35 | 359 | 0.0 | 19.3 | 0.00 | 0.00 | 0.00 | 49 | 990.2 |
| 20260904221545 | 35 | 42 | 3.2 | 14.5 | 0.00 | 0.00 | 0.00 | 50 | 990.1 |
| 20260904220107 | 35 | 41 | 1.6 | 16.1 | 0.00 | 0.00 | 0.00 | 49 | 990.2 |
| 20260904214543 | 36 | 36 | 3.2 | 17.7 | 0.00 | 0.00 | 0.00 | 49 | 990.5 |
| 20260904213039 | 36 | 116 | 0.0 | 8.0 | 0.00 | 0.00 | 0.00 | 49 | 990.5 |
| 20260904211549 | 35 | 53 | 3.2 | 11.3 | 0.00 | 0.00 | 0.00 | 49 | 990.6 |
| 20260904210039 | 35 | 77 | 1.6 | 16.1 | 0.00 | 0.00 | 0.00 | 49 | 990.7 |
| 20260904204545 | 35 | 262 | 0.0 | 12.9 | 0.00 | 0.00 | 0.00 | 50 | 990.9 |
| 20260904203042 | 35 | 127 | 0.0 | 16.1 | 0.00 | 0.00 | 0.00 | 50 | 991.0 |
| 20260904201534 | 35 | 36 | 3.2 | 16.1 | 0.00 | 0.00 | 0.00 | 48 | 991.2 |
| 20260904200036 | 36 | 38 | 0.0 | 8.0 | 0.00 | 0.00 | 0.00 | 46 | 991.5 |
| 20260904194545 | 36 | 359 | 0.0 | 1.6 | 0.00 | 0.00 | 0.00 | 47 | 991.7 |
| 20260904193023 | 36 | 86 | 0.0 | 4.8 | 0.00 | 0.00 | 0.00 | 48 | 991.9 |
| 20260904191536 | 35 | 38 | 0.0 | 3.2 | 0.00 | 0.00 | 0.00 | 50 | 992.0 |
| 20260904190019 | 35 | 62 | 0.0 | 4.8 | 0.00 | 0.00 | 0.00 | 52 | 992.2 |
| 20260904184518 | 34 | 54 | 0.0 | 3.2 | 0.00 | 0.00 | 0.00 | 52 | 992.3 |
| 20260904183017 | 35 | 61 | 9.7 | 14.5 | 0.00 | 0.00 | 0.00 | 53 | 992.5 |
| 20260904181515 | 34 | 122 | 0.0 | 4.8 | 0.00 | 0.00 | 0.00 | 53 | 992.7 |
| 20260904180012 | 34 | 173 | 0.0 | 3.2 | 0.00 | 0.00 | 0.00 | 55 | 993.0 |
| 20260904174512 | 33 | 91 | 0.0 | 8.0 | 0.00 | 0.00 | 0.00 | 55 | 993.2 |
| 20260904173010 | 33 | 102 | 0.0 | 6.4 | 0.00 | 0.00 | 0.00 | 55 | 993.4 |
| 20260904171506 | 33 | 106 | 6.4 | 16.1 | 0.00 | 0.00 | 0.00 | 56 | 993.5 |
| 20260904170005 | 33 | 43 | 6.4 | 16.1 | 0.00 | 0.00 | 0.00 | 55 | 993.7 |
| 20260904164503 | 32 | 50 | 3.2 | 12.9 | 0.00 | 0.00 | 0.00 | 59 | 993.7 |
| 20260904163107 | 32 | 175 | 0.0 | 11.3 | 0.00 | 0.00 | 0.00 | 59 | 993.8 |
| 20260904161558 | 32 | 86 | 0.0 | 1.6 | 0.00 | 0.00 | 0.00 | 62 | 993.7 |
| 20260904160057 | 31 | 84 | 0.0 | 4.8 | 0.00 | 0.00 | 0.00 | 66 | 993.9 |
| 20260904154549 | 30 | 119 | 0.0 | 4.8 | 0.00 | 0.00 | 0.00 | 71 | 993.8 |
| 20260904153050 | 30 | 143 | 0.0 | 4.8 | 0.00 | 0.00 | 0.00 | 73 | 993.7 |
| 20260904151543 | 29 | 74 | 6.4 | 16.1 | 0.00 | 0.00 | 0.00 | 76 | 993.6 |
| 20260904150049 | 28 | 52 | 0.0 | 3.2 | 0.00 | 0.00 | 0.00 | 78 | 993.6 |
| 20260904144538 | 28 | 102 | 1.6 | 14.5 | 0.00 | 0.00 | 0.00 | 82 | 993.7 |
| 20260904143038 | 27 | 76 | 0.0 | 3.2 | 0.00 | 0.00 | 0.00 | 84 | 993.8 |
| 20260904141532 | 27 | 95 | 0.0 | 6.4 | 0.00 | 0.00 | 0.00 | 85 | 993.7 |
| 20260904140035 | 27 | 67 | 0.0 | 3.2 | 0.00 | 0.00 | 0.00 | 87 | 993.6 |
| 20260904134523 | 26 | 66 | 0.0 | 8.0 | 0.00 | 0.00 | 0.00 | 89 | 993.5 |
| 20260904133022 | 25 | 53 | 0.0 | 4.8 | 0.00 | 0.00 | 0.00 | 90 | 993.4 |
| 20260904131521 | 25 | 62 | 0.0 | 9.7 | 0.00 | 0.00 | 0.00 | 91 | 993.3 |
| 20260904130020 | 25 | 41 | 0.0 | 11.3 | 0.00 | 0.00 | 0.00 | 92 | 993.1 |
| 20260904124517 | 24 | 30 | 0.0 | 3.2 | 0.00 | 0.00 | 0.00 | 93 | 993.0 |
| 20260904123017 | 24 | 41 | 0.0 | 3.2 | 0.00 | 0.00 | 0.00 | 93 | 992.9 |
| 20260904121516 | 24 | 37 | 0.0 | 9.7 | 0.00 | 0.00 | 0.00 | 93 | 992.8 |
| 20260904120014 | 24 | 29 | 0.0 | 3.2 | 0.00 | 0.00 | 0.00 | 92 | 992.7 |
| 20260904114513 | 24 | 39 | 0.0 | 3.2 | 0.00 | 0.00 | 0.00 | 92 | 992.7 |
| 20260904113018 | 24 | 50 | 0.0 | 8.0 | 0.00 | 0.00 | 0.00 | 91 | 992.3 |
| 20260904111511 | 23 | 33 | 0.0 | 3.2 | 0.00 | 0.00 | 0.00 | 91 | 992.3 |
| 20260904110021 | 23 | 44 | 0.0 | 3.2 | 0.00 | 0.00 | 0.00 | 90 | 992.4 |
| 20260904104508 | 23 | 28 | 0.0 | 3.2 | 0.00 | 0.00 | 0.00 | 90 | 992.3 |
| 20260904103006 | 24 | 359 | 0.0 | 1.6 | 0.00 | 0.00 | 0.00 | 89 | 992.2 |
| 20260904101505 | 24 | 119 | 0.0 | 3.2 | 0.00 | 0.00 | 0.00 | 88 | 992.1 |
| 20260904100005 | 24 | 40 | 0.0 | 3.2 | 0.00 | 0.00 | 0.00 | 87 | 991.9 |
| 20260904094503 | 24 | 39 | 0.0 | 8.0 | 0.00 | 0.00 | 0.00 | 87 | 991.9 |
| 20260904093002 | 24 | 44 | 0.0 | 3.2 | 0.00 | 0.00 | 0.00 | 86 | 992.0 |
| 20260904091501 | 24 | 59 | 0.0 | 3.2 | 0.00 | 0.00 | 0.00 | 85 | 991.9 |
| 20260904090000 | 24 | 38 | 0.0 | 1.6 | 0.00 | 0.00 | 0.00 | 85 | 992.0 |
| 20260904084601 | 24 | 36 | 0.0 | 4.8 | 0.00 | 0.00 | 0.00 | 84 | 991.9 |
| 20260904083058 | 25 | 52 | 0.0 | 1.6 | 0.00 | 0.00 | 0.00 | 84 | 991.9 |
| 20260904081558 | 25 | 39 | 0.0 | 3.2 | 0.00 | 0.00 | 0.00 | 83 | 991.9 |
| 20260904074556 | 25 | 46 | 0.0 | 1.6 | 0.00 | 0.00 | 0.00 | 83 | 991.8 |
| 20260904073055 | 25 | 359 | 0.0 | 1.6 | 0.00 | 0.00 | 0.00 | 82 | 991.9 |
| 20260904071554 | 25 | 48 | 0.0 | 1.6 | 0.00 | 0.00 | 0.00 | 82 | 992.0 |
| 20260904070053 | 25 | 62 | 0.0 | 1.6 | 0.00 | 0.00 | 0.00 | 82 | 992.0 |
| 20260904064550 | 25 | 87 | 0.0 | 3.2 | 0.00 | 0.00 | 0.00 | 82 | 992.1 |
| 20260904063050 | 25 | 61 | 0.0 | 1.6 | 0.00 | 0.00 | 0.00 | 81 | 992.1 |
| 20260904061552 | 25 | 98 | 0.0 | 1.6 | 0.00 | 0.00 | 0.00 | 81 | 992.2 |
| 20260904060047 | 25 | 59 | 0.0 | 1.6 | 0.00 | 0.00 | 0.00 | 80 | 992.1 |
| 20260904054546 | 26 | 56 | 0.0 | 1.6 | 0.00 | 0.00 | 0.00 | 79 | 992.1 |
| 20260904053046 | 26 | 52 | 0.0 | 3.2 | 0.00 | 0.00 | 0.00 | 78 | 992.1 |
| 20260904051549 | 26 | 75 | 0.0 | 3.2 | 0.00 | 0.00 | 0.00 | 77 | 992.1 |
| 20260904050041 | 26 | 54 | 0.0 | 3.2 | 0.00 | 0.00 | 0.00 | 76 | 992.1 |
| 20260904044540 | 26 | 68 | 0.0 | 3.2 | 0.00 | 0.00 | 0.00 | 75 | 992.1 |
| 20260904043040 | 26 | 73 | 0.0 | 3.2 | 0.00 | 0.00 | 0.00 | 74 | 992.1 |
| 20260904041549 | 26 | 39 | 0.0 | 9.7 | 0.00 | 0.00 | 0.00 | 74 | 992.2 |
| 20260904040039 | 26 | 59 | 0.0 | 3.2 | 0.00 | 0.00 | 0.00 | 73 | 992.2 |
| 20260904034549 | 26 | 62 | 0.0 | 9.7 | 0.00 | 0.00 | 0.00 | 72 | 992.2 |
| 20260904033038 | 27 | 52 | 0.0 | 3.2 | 0.00 | 0.00 | 0.00 | 72 | 992.2 |
| 20260904031543 | 27 | 49 | 0.0 | 4.8 | 0.00 | 0.00 | 0.00 | 72 | 992.2 |
| 20260904030037 | 27 | 42 | 0.0 | 3.2 | 0.00 | 0.00 | 0.00 | 72 | 992.1 |
| 20260904024536 | 27 | 52 | 0.0 | 11.3 | 0.00 | 0.00 | 0.00 | 72 | 992.0 |
| 20260904023035 | 27 | 66 | 0.0 | 4.8 | 0.00 | 0.00 | 0.00 | 72 | 991.7 |
| 20260904021536 | 27 | 60 | 0.0 | 4.8 | 0.00 | 0.00 | 0.00 | 72 | 991.4 |
| 20260904020035 | 27 | 64 | 0.0 | 3.2 | 0.00 | 0.00 | 0.00 | 73 | 991.3 |
| 20260904014534 | 27 | 84 | 0.0 | 3.2 | 0.00 | 0.00 | 0.00 | 75 | 991.1 |
| 20260904013035 | 28 | 52 | 0.0 | 14.5 | 0.00 | 0.00 | 0.00 | 74 | 990.9 |
| 20260904011556 | 28 | 52 | 1.6 | 16.1 | 0.00 | 0.00 | 0.00 | 73 | 990.8 |